Location: Kuffner-Sternwarte
(48.2130°N, 16.2960°E)
Time: 16:32:32
(UTC+02:00)

COROT - Pass Details

Date: 14 May 2026
Orbit: 594 x 855 km, 90.1° (Epoch: 21 May)

Event Time Altitude Azimuth Distance (km) Brightness Sun altitude
Rises 22:25:44 0° 13° (NNE) 3,341 10.0 -15.5°
Reaches altitude 10° 22:28:49 10° 30° (NNE) 2,362 8.9 -15.8°
Maximum altitude 22:32:37 20° 76° (ENE) 1,719 7.6 -16.2°
Enters shadow 22:34:20 17° 102° (ESE) 1,835 7.6 -16.4°
